DateTimeUTC,F1_A11,F1_S11,BsB_S11,BsG_S11,BsR_S11,BbsB_S11,BbsG_S11,BbsR_S11,BaB_A11,BaG_A11,BaR_A11,Tu_S11,T_S11,Uu_S11,U_S11,P_S11,T1_A11
2021-05-27T22:00:00Z,00040200,20000000,,,,,,,-000.13,-000.21,-000.18,19.2,26.0,03.3,02.2,0678.7,31.1
2021-05-27T22:01:00Z,00040200,20000000,,,,,,,0000.28,0000.23,0000.26,19.2,26.0,03.3,02.2,0678.7,31.1
2021-05-27T22:02:00Z,00040200,20000000,,,,,,,-000.17,-000.33,-000.30,19.2,26.0,03.2,02.1,0678.7,31.1
2021-05-27T22:03:00Z,00040200,60000000,,,,,,,0000.76,0000.61,0000.63,19.2,26.0,03.2,02.1,0678.7,31.1
2021-05-27T22:04:00Z,00040200,40000000,0002.57,0001.55,0001.04,0000.09,0000.21,0000.22,0000.64,0000.62,0000.15,19.3,25.8,03.1,02.1,0679.6,31.1
2021-05-27T22:05:00Z,00040200,00000000,0002.68,0001.67,0001.07,-000.16,0000.42,0000.05,0000.14,0000.21,0000.24,19.3,25.7,03.1,02.1,0679.7,31.1
2021-05-27T22:06:00Z,00040200,00000000,0002.53,0001.87,0001.00,0000.65,0000.34,0000.04,0001.05,0001.22,0001.05,19.3,25.7,03.1,02.1,0679.7,31.1
2021-05-27T22:07:00Z,00040200,00000000,0002.95,0002.07,0001.25,0000.80,0000.01,0000.06,0000.70,0000.34,0000.22,19.3,25.7,03.0,02.1,0679.7,31.1
2021-05-27T22:08:00Z,00040200,00000000,0003.15,0002.11,0001.10,0000.41,0000.21,0000.27,0000.77,0001.30,0001.09,19.3,25.7,02.9,02.0,0679.7,31.1
2021-05-27T22:09:00Z,00040200,00000000,0002.91,0002.03,0001.26,0000.38,0000.18,0000.30,0001.13,0000.36,0000.09,19.3,25.7,03.0,02.0,0679.7,31.1
2021-05-27T22:10:00Z,00040200,00000000,0004.22,0001.97,0001.41,0000.16,0000.36,-000.06,0000.90,0000.46,0000.80,19.3,25.7,03.0,02.0,0679.7,31.1
2021-05-27T22:11:00Z,00040200,00000000,0003.24,0002.15,0001.43,0000.99,0000.15,-000.07,0001.15,0001.46,0000.18,19.3,25.6,02.8,01.9,0679.7,31.1
2021-05-27T22:12:00Z,00040200,00000000,0003.29,0002.23,0001.25,0000.10,0000.26,0000.09,0000.70,0000.65,0000.92,19.3,25.6,02.8,01.9,0679.7,31.1
2021-05-27T22:13:00Z,00040200,00000000,0004.04,0002.35,0001.62,0000.24,0000.53,0000.13,0000.73,0000.77,0000.68,19.3,25.6,02.8,01.9,0679.7,31.1
2021-05-27T22:14:00Z,00040200,00000000,0003.44,0002.49,0001.87,0000.75,0000.38,-000.10,0001.27,0001.17,0000.92,19.3,25.6,02.8,01.9,0679.7,31.1
2021-05-27T22:15:00Z,00040200,00000000,0003.59,0002.34,0001.51,0000.02,0000.48,0000.11,0001.42,0001.20,0000.69,19.3,25.6,02.8,01.9,0679.7,31.1
2021-05-27T22:16:00Z,00040200,00000000,0003.87,0002.36,0001.61,0000.85,0000.44,0000.05,0000.74,0000.68,0000.80,19.3,25.6,02.8,01.9,0679.7,31.1
2021-05-27T22:17:00Z,00040200,00000000,0003.16,0002.13,0001.25,0000.17,0000.36,-000.14,0000.67,0000.86,0000.52,19.3,25.6,02.9,01.9,0679.7,31.1
2021-05-27T22:18:00Z,00040200,00000000,0003.42,0001.97,0001.52,0000.29,0000.32,-000.03,0001.61,0000.70,0000.99,19.3,25.6,02.9,02.0,0679.8,31.1
2021-05-27T22:19:00Z,00040200,00000000,0003.27,0002.25,0001.55,0000.59,0000.44,0000.15,0000.64,0001.19,0000.59,19.3,25.6,02.9,02.0,0679.8,31.1
2021-05-27T22:20:00Z,00040200,00000000,0003.15,0002.31,0001.53,0000.00,0000.46,0000.36,0001.08,0000.55,0000.58,19.2,25.6,02.8,01.9,0679.9,31.1
2021-05-27T22:21:00Z,00040200,00000000,0003.80,0002.65,0001.81,0000.73,0000.46,0000.30,0000.69,0001.10,0000.47,19.2,25.6,02.8,01.9,0680.0,31.1
2021-05-27T22:22:00Z,00040200,00000000,0004.04,0002.38,0001.56,0000.49,0000.11,0000.37,0001.18,0000.89,0000.74,19.2,25.6,02.9,01.9,0680.0,31.1
2021-05-27T22:23:00Z,00040200,00000000,0003.56,0002.71,0001.51,0000.83,0000.58,0000.19,0001.16,0000.76,0000.76,19.2,25.6,02.7,01.9,0680.1,31.1
2021-05-27T22:24:00Z,00040200,00000000,0003.84,0002.79,0002.22,0000.55,0000.44,0000.34,0000.88,0000.82,0000.54,19.2,25.5,02.7,01.9,0680.1,31.1
2021-05-27T22:25:00Z,00040200,00000000,0003.95,0003.07,0001.84,-000.06,0000.38,0000.22,0001.29,0001.53,0000.65,19.2,25.5,02.6,01.8,0680.2,31.1
2021-05-27T22:26:00Z,00040200,00000000,0004.82,0003.07,0001.71,0000.41,0000.40,0000.08,0000.84,0001.02,0000.79,19.2,25.5,02.6,01.7,0680.2,31.1
2021-05-27T22:27:00Z,00040200,00000000,0004.20,0002.99,0001.88,0000.57,0000.40,0000.14,0001.44,0000.35,0001.22,19.2,25.5,02.6,01.8,0680.1,31.1
2021-05-27T22:28:00Z,00040200,00000000,0004.46,0002.53,0001.98,0000.44,0000.45,0000.38,0000.80,0001.27,0000.49,19.2,25.5,02.7,01.8,0680.1,31.1
2021-05-27T22:29:00Z,00040200,00000000,0003.70,0002.80,0001.65,0000.65,0000.38,0000.24,0001.49,0001.21,0001.01,19.2,25.5,02.6,01.7,0680.1,31.1
2021-05-27T22:30:00Z,00040200,00000000,0004.41,0002.77,0001.98,0000.91,0000.48,0000.30,0001.18,0001.12,0000.73,19.2,25.5,02.6,01.8,0680.1,31.1
2021-05-27T22:31:00Z,00040200,00000000,0004.92,0002.93,0002.00,0000.34,0000.62,0000.34,0000.97,0000.94,0000.90,19.2,25.5,02.6,01.8,0680.1,31.1
2021-05-27T22:32:00Z,00040200,00000000,0003.58,0003.23,0001.82,0000.50,0000.14,0000.24,0001.48,0001.17,0001.01,19.2,25.5,02.5,01.7,0680.2,31.1
2021-05-27T22:33:00Z,00040200,00000000,0004.44,0003.46,0002.33,0000.92,0000.33,0000.37,0001.10,0001.31,0000.67,19.2,25.5,02.4,01.6,0680.3,31.1
2021-05-27T22:34:00Z,00040200,00000000,0005.36,0003.27,0002.17,0000.35,0000.73,0000.39,0005.79,0005.31,0004.13,19.2,25.5,02.5,01.7,0680.3,31.1
2021-05-27T22:35:00Z,00040200,00000000,0005.39,0003.65,0002.22,0000.34,0000.68,0000.26,0016.10,0014.72,0011.82,19.2,25.5,02.5,01.7,0680.3,31.1
2021-05-27T22:36:00Z,00040200,00000000,0006.34,0003.64,0002.70,0000.87,0000.61,0000.35,0019.53,0018.33,0014.83,19.2,25.4,02.5,01.7,0680.4,31.1
2021-05-27T22:37:00Z,00040200,00000000,0005.69,0003.59,0002.46,0000.90,0000.85,0000.10,0033.86,0030.58,0024.93,19.2,25.4,02.5,01.7,0680.3,31.1
2021-05-27T22:38:00Z,00040200,00000000,0004.55,0003.04,0002.01,0000.69,0000.54,0000.29,0020.46,0019.62,0015.59,19.1,25.5,02.5,01.7,0680.3,31.1
2021-05-27T22:39:00Z,00040200,00000000,0003.52,0002.28,0001.27,0000.64,0000.50,0000.12,0003.35,0003.38,0002.32,19.1,25.4,02.7,01.8,0680.2,31.1
2021-05-27T22:40:00Z,00040200,00000000,0003.44,0002.44,0001.49,0000.11,0000.12,-000.03,0006.59,0005.37,0005.06,19.1,25.4,02.7,01.8,0680.2,31.1
2021-05-27T22:41:00Z,00040200,00000000,0007.33,0005.06,0003.32,0001.22,0000.93,0000.36,0039.82,0037.23,0029.88,19.1,25.4,02.6,01.7,0680.1,31.1
2021-05-27T22:42:00Z,00040200,00000000,0008.26,0005.12,0003.36,0001.05,0001.07,0000.69,0042.74,0039.25,0031.73,19.1,25.4,02.4,01.6,0680.1,31.1
2021-05-27T22:43:00Z,00040200,00000000,0005.60,0004.55,0002.66,0000.76,0000.53,0000.36,0027.36,0025.45,0020.33,19.1,25.4,02.4,01.6,0680.1,31.1
2021-05-27T22:44:00Z,00040200,00000000,0006.73,0004.59,0002.62,0000.74,0000.78,0000.34,0025.79,0023.89,0019.40,19.1,25.4,02.4,01.6,0680.1,31.1
2021-05-27T22:45:00Z,00040200,00000000,0007.12,0004.30,0002.64,0000.94,0000.48,0000.56,0027.13,0025.00,0020.35,19.1,25.4,02.4,01.7,0680.1,31.1
2021-05-27T22:46:00Z,00040200,00000000,0005.94,0003.93,0002.53,0001.07,0000.82,0000.12,0033.79,0031.55,0025.11,19.1,25.4,02.5,01.7,0680.2,31.1
2021-05-27T22:47:00Z,00040200,00000000,0004.27,0002.83,0001.87,0000.59,0000.48,0000.44,0014.16,0013.47,0010.71,19.1,25.4,02.6,01.8,0680.3,31.1
2021-05-27T22:48:00Z,00040200,00000000,0003.36,0002.20,0001.15,0000.44,0000.27,0000.05,0004.17,0003.30,0003.20,19.1,25.4,02.6,01.8,0680.3,31.1
2021-05-27T22:49:00Z,00040200,00000000,0002.65,0002.40,0001.38,0000.11,0000.34,0000.05,0001.59,0001.48,0001.16,19.1,25.4,02.7,01.8,0680.3,31.1
2021-05-27T22:50:00Z,00040200,00000000,0003.53,0002.26,0001.55,0000.86,0000.36,0000.26,0001.79,0001.70,0001.29,19.1,25.4,02.7,01.8,0680.3,31.1
2021-05-27T22:51:00Z,00040200,00000000,0003.29,0002.29,0001.45,0000.71,0000.38,0000.19,0003.25,0003.43,0002.22,19.1,25.3,02.7,01.8,0680.2,31.0
2021-05-27T22:52:00Z,00040200,00000000,0008.59,0005.37,0003.75,0001.40,0001.04,0000.80,0059.94,0055.39,0044.98,19.1,25.3,02.6,01.8,0680.1,31.0
2021-05-27T22:53:00Z,00040200,00000000,0008.33,0005.20,0003.36,0001.05,0000.88,0000.78,0059.47,0055.42,0044.25,19.1,25.3,02.6,01.8,0680.1,31.1
2021-05-27T22:54:00Z,00040200,00000000,0005.53,0003.60,0002.63,0001.24,0000.55,0000.59,0030.88,0028.17,0023.17,19.0,25.3,02.6,01.7,0680.0,31.0
2021-05-27T22:55:00Z,00040200,00000000,0005.40,0003.41,0002.20,0001.01,0000.70,0000.07,0020.36,0018.83,0015.11,19.0,25.3,02.5,01.7,0680.0,31.0
2021-05-27T22:56:00Z,00040200,00000000,0005.37,0004.03,0002.48,0000.81,0000.80,0000.53,0025.00,0023.33,0018.87,19.0,25.3,02.4,01.7,0680.0,31.1
2021-05-27T22:57:00Z,00040200,40000000,,,,,,,0009.28,0009.05,0007.31,19.1,25.3,02.2,01.5,0679.9,31.0
2021-05-27T22:58:00Z,00040200,60000000,,,,,,,0000.09,-000.05,0000.24,18.8,25.5,02.6,01.7,0679.1,31.0
2021-05-27T22:59:00Z,00040200,20000000,,,,,,,0000.50,0000.50,0000.57,18.8,25.6,02.5,01.6,0679.1,31.1
